• In Uzbekistan
  • List of Countries
  • For 7 days
  • Water Temperature
  • Satellite Maps
  • Weather Map
  • Weather Widgets
  • user-avatar
    Login

    Hourly Weather Varel

    Today, 16 July, Monday

    Time Temperature Precipitation Wind Pressure Humidity
    00:00 +14°C° 0 mm 3 mps 762 mmHg 85%
    01:00 +14°C° 0 mm 3 mps 762 mmHg 85%
    02:00 +15°C° 0 mm 2 mps 762 mmHg 87%
    03:00 +14°C° 0 mm 2 mps 762 mmHg 89%
    04:00 +14°C° 0 mm 2 mps 762 mmHg 91%
    05:00 +15°C° 0 mm 2 mps 762 mmHg 87%
    06:00 +17°C° 0 mm 2 mps 762 mmHg 83%
    07:00 +19°C° 0 mm 1 mps 761 mmHg 79%
    08:00 +20°C° 0 mm 2 mps 761 mmHg 74%
    09:00 +21°C° 0 mm 2 mps 761 mmHg 69%
    10:00 +24°C° 0 mm 2 mps 761 mmHg 64%
    11:00 +24°C° 0 mm 2 mps 761 mmHg 61%
    12:00 +25°C° 0 mm 2 mps 761 mmHg 58%
    13:00 +26°C° 0 mm 3 mps 760 mmHg 55%
    14:00 +26°C° 0 mm 3 mps 760 mmHg 57%
    15:00 +26°C° 0 mm 3 mps 760 mmHg 59%
    16:00 +25°C° 0 mm 4 mps 760 mmHg 61%
    17:00 +25°C° 0.1 mm 3 mps 759 mmHg 65%
    18:00 +24°C° 0.1 mm 3 mps 759 mmHg 70%
    19:00 +22°C° 0.1 mm 3 mps 759 mmHg 74%
    20:00 +20°C° 0 mm 3 mps 759 mmHg 77%
    21:00 +19°C° 0 mm 3 mps 760 mmHg 79%
    22:00 +17°C° 0 mm 3 mps 760 mmHg 82%
    23:00 +17°C° 0 mm 2 mps 760 mmHg 84%

    Tomorrow, 17 July, Tuesday

    Time Temperature Precipitation Wind Pressure Humidity
    00:00 +16°C° 0 mm 2 mps 760 mmHg 85%
    01:00 +16°C° 0 mm 2 mps 760 mmHg 86%
    02:00 +16°C° 0 mm 1 mps 760 mmHg 87%
    03:00 +16°C° 0 mm 1 mps 760 mmHg 88%
    04:00 +15°C° 0 mm 1 mps 760 mmHg 88%
    05:00 +18°C° 0 mm 1 mps 759 mmHg 85%
    06:00 +17°C° 0 mm 0 mps 759 mmHg 81%
    07:00 +18°C° 0 mm 0 mps 759 mmHg 77%
    08:00 +20°C° 0 mm 0 mps 759 mmHg 72%
    09:00 +24°C° 0 mm 1 mps 759 mmHg 66%
    10:00 +25°C° 0 mm 1 mps 759 mmHg 61%
    11:00 +26°C° 0 mm 1 mps 759 mmHg 58%
    12:00 +27°C° 0 mm 1 mps 759 mmHg 54%
    13:00 +27°C° 0 mm 2 mps 759 mmHg 51%
    14:00 +27°C° 0 mm 2 mps 759 mmHg 51%
    15:00 +27°C° 0 mm 2 mps 759 mmHg 52%
    16:00 +27°C° 0 mm 3 mps 759 mmHg 53%
    17:00 +26°C° 0 mm 2 mps 759 mmHg 59%
    18:00 +25°C° 0 mm 2 mps 759 mmHg 66%
    19:00 +24°C° 0 mm 2 mps 759 mmHg 72%
    20:00 +21°C° 0 mm 2 mps 759 mmHg 74%
    21:00 +20°C° 0 mm 2 mps 759 mmHg 75%
    22:00 +19°C° 0 mm 2 mps 759 mmHg 76%
    23:00 +18°C° 0 mm 2 mps 760 mmHg 81%

    Day after tomorrow, 18 July, Wednesday

    Time Temperature Precipitation Wind Pressure Humidity
    00:00 +17°C° 0 mm 3 mps 760 mmHg 85%
    01:00 +16°C° 0 mm 3 mps 760 mmHg 90%
    02:00 +16°C° 0 mm 3 mps 760 mmHg 92%
    03:00 +14°C° 0 mm 3 mps 760 mmHg 94%
    04:00 +14°C° 0 mm 3 mps 760 mmHg 97%
    05:00 +15°C° 0 mm 4 mps 760 mmHg 94%
    06:00 +17°C° 0 mm 4 mps 760 mmHg 92%
    07:00 +17°C° 0 mm 4 mps 761 mmHg 90%
    08:00 +18°C° 0 mm 4 mps 761 mmHg 84%
    09:00 +19°C° 0 mm 5 mps 761 mmHg 79%
    10:00 +20°C° 0 mm 5 mps 761 mmHg 74%
    11:00 +21°C° 0 mm 5 mps 761 mmHg 69%
    12:00 +22°C° 0 mm 5 mps 761 mmHg 65%
    13:00 +22°C° 0 mm 6 mps 761 mmHg 60%
    14:00 +22°C° 0 mm 6 mps 762 mmHg 60%
    15:00 +22°C° 0 mm 6 mps 762 mmHg 60%
    16:00 +22°C° 0 mm 6 mps 762 mmHg 60%
    17:00 +21°C° 0 mm 5 mps 762 mmHg 64%
    18:00 +20°C° 0 mm 5 mps 762 mmHg 68%
    19:00 +19°C° 0 mm 4 mps 762 mmHg 72%
    20:00 +18°C° 0 mm 4 mps 762 mmHg 78%
    21:00 +16°C° 0 mm 3 mps 763 mmHg 84%
    22:00 +13°C° 0 mm 3 mps 763 mmHg 91%
    23:00 +13°C° 0 mm 3 mps 763 mmHg 91%

    19 July, Thursday

    Time Temperature Precipitation Wind Pressure Humidity
    00:00 +13°C° 0 mm 3 mps 763 mmHg 91%
    01:00 +14°C° 0 mm 2 mps 763 mmHg 92%
    02:00 +14°C° 0 mm 2 mps 763 mmHg 92%
    03:00 +13°C° 0 mm 2 mps 763 mmHg 92%
    04:00 +13°C° 0 mm 2 mps 763 mmHg 92%
    05:00 +15°C° 0 mm 2 mps 763 mmHg 88%
    06:00 +16°C° 0 mm 2 mps 763 mmHg 85%
    07:00 +17°C° 0 mm 2 mps 763 mmHg 81%
    08:00 +18°C° 0 mm 2 mps 763 mmHg 75%
    09:00 +20°C° 0 mm 2 mps 763 mmHg 69%
    10:00 +21°C° 0 mm 3 mps 763 mmHg 63%
    11:00 +22°C° 0 mm 3 mps 763 mmHg 61%
    12:00 +22°C° 0 mm 3 mps 763 mmHg 59%
    13:00 +24°C° 0 mm 3 mps 763 mmHg 57%
    14:00 +24°C° 0 mm 3 mps 763 mmHg 57%
    15:00 +24°C° 0 mm 3 mps 762 mmHg 58%
    16:00 +24°C° 0 mm 3 mps 762 mmHg 59%
    17:00 +22°C° 0 mm 3 mps 762 mmHg 63%
    18:00 +21°C° 0 mm 3 mps 762 mmHg 68%
    19:00 +20°C° 0 mm 3 mps 762 mmHg 72%
    20:00 +18°C° 0 mm 3 mps 762 mmHg 78%
    21:00 +16°C° 0 mm 3 mps 762 mmHg 83%
    22:00 +15°C° 0 mm 2 mps 762 mmHg 89%
    23:00 +14°C° 0 mm 2 mps 762 mmHg 89%

    20 July, Friday

    Time Temperature Precipitation Wind Pressure Humidity
    00:00 +14°C° 0 mm 2 mps 762 mmHg 90%
    01:00 +13°C° 0 mm 1 mps 762 mmHg 90%
    02:00 +13°C° 0 mm 1 mps 762 mmHg 89%
    03:00 +13°C° 0 mm 1 mps 762 mmHg 89%
    04:00 +12°C° 0 mm 1 mps 761 mmHg 88%
    05:00 +14°C° 0 mm 1 mps 761 mmHg 84%
    06:00 +15°C° 0 mm 1 mps 761 mmHg 79%
    07:00 +16°C° 0 mm 1 mps 761 mmHg 75%
    08:00 +19°C° 0 mm 1 mps 761 mmHg 69%
    09:00 +20°C° 0 mm 2 mps 761 mmHg 64%
    10:00 +21°C° 0 mm 2 mps 761 mmHg 58%
    11:00 +23°C° 0 mm 2 mps 760 mmHg 56%
    12:00 +24°C° 0 mm 2 mps 760 mmHg 53%
    13:00 +25°C° 0 mm 2 mps 760 mmHg 51%
    14:00 +25°C° 0 mm 2 mps 760 mmHg 51%
    15:00 +25°C° 0 mm 3 mps 759 mmHg 52%
    16:00 +25°C° 0 mm 3 mps 759 mmHg 52%
    17:00 +24°C° 0 mm 3 mps 759 mmHg 57%
    18:00 +22°C° 0 mm 4 mps 759 mmHg 61%
    19:00 +20°C° 0 mm 4 mps 759 mmHg 66%
    20:00 +19°C° 0 mm 4 mps 759 mmHg 68%
    21:00 +18°C° 0 mm 4 mps 759 mmHg 69%
    22:00 +16°C° 0 mm 3 mps 759 mmHg 71%
    23:00 +17°C° 0 mm 3 mps 759 mmHg 71%

    21 July, Saturday

    Time Temperature Precipitation Wind Pressure Humidity
    00:00 +17°C° 0 mm 3 mps 759 mmHg 71%
    01:00 +17°C° 0 mm 3 mps 759 mmHg 71%
    02:00 +17°C° 0 mm 3 mps 759 mmHg 74%
    03:00 +16°C° 0 mm 3 mps 759 mmHg 76%
    04:00 +16°C° 0 mm 3 mps 759 mmHg 79%
    05:00 +17°C° 0 mm 2 mps 759 mmHg 78%
    06:00 +18°C° 0 mm 2 mps 759 mmHg 77%
    07:00 +19°C° 0 mm 2 mps 759 mmHg 76%
    08:00 +21°C° 0 mm 2 mps 759 mmHg 70%
    09:00 +24°C° 0 mm 2 mps 759 mmHg 65%
    10:00 +25°C° 0 mm 2 mps 759 mmHg 59%
    11:00 +26°C° 0 mm 2 mps 759 mmHg 58%
    12:00 +27°C° 0 mm 3 mps 759 mmHg 56%
    13:00 +27°C° 0 mm 3 mps 759 mmHg 54%
    14:00 +27°C° 0.4 mm 3 mps 759 mmHg 57%
    15:00 +26°C° 0.4 mm 4 mps 759 mmHg 60%
    16:00 +26°C° 0.4 mm 4 mps 759 mmHg 64%
    17:00 +25°C° 0.2 mm 4 mps 759 mmHg 66%
    18:00 +23°C° 0.2 mm 4 mps 759 mmHg 69%
    19:00 +22°C° 0.2 mm 4 mps 759 mmHg 72%
    20:00 +21°C° 0 mm 4 mps 759 mmHg 75%
    21:00 +19°C° 0 mm 4 mps 759 mmHg 79%
    22:00 +18°C° 0 mm 4 mps 760 mmHg 82%
    23:00 +18°C° 0 mm 3 mps 760 mmHg 83%
    Show more